Submittal Forms
Current Contests
Recent Contests

Group Activity Tracker - NCCC and Friends (from list of calls managed by WX5S)

Recent postings for the selected club or group are listed below. Other than the call used, all calls listed are only those associated with the club or group. Click on a call to see the details of the posting.
Status Key: new=new posting, update=update prior posting, move=change club/group, delete=delete prior posting.

Sort by   for past

TimestampCallContestClassPowerScoreStatus
2020-05-22 19:16:30W6FANCCC SprintSingle OpHP63new5598
2020-05-22 03:09:55K6MRNCCC SprintSingle OpLP952new5598
2020-05-22 03:05:12N3ZZNCCC SprintSingle OpLP1,248new5598
2020-05-22 03:04:34K7GKNCCC SprintSingle OpLP513new5598
2020-05-22 03:02:45N6RONCCC SprintSingle OpHP4new5598
2020-05-22 02:23:44W0YKNCCC RY-SprintSingle OpLP448new5597
2020-05-22 02:22:29NN7SS(K6UFO)NCCC RY-SprintSingle OpQRP364new5597
2020-05-22 02:17:02K6MRNCCC RY-SprintSingle OpLP405new5597
2020-05-21 18:19:51KF6NCXCWopsTSingle OpHP121new5594
2020-05-21 04:14:11KI6OYCWopsTSingle OpLP320new5594
 
2020-05-21 04:04:50N6ROCWopsTSingle OpHP9new5594
2020-05-21 04:03:55W6SXCWopsTSingle OpHP13,800new5594
2020-05-21 03:46:32K6RBCWopsTSingle OpHP5,041new5594
2020-05-21 03:29:47KU7YCWopsTSingle OpLP289new5594
2020-05-20 20:20:36KI6OYCWopsTSingle OpLP400new5593
2020-05-20 20:06:12WU6XCWopsTSingle OpLP225new5593
2020-05-20 20:06:00WD6T(@N6RO)CWopsTSingle OpLP6,400new5593
2020-05-20 19:58:53KU7YCWopsTSingle OpLP121new5593
2020-05-20 19:23:33NA6OCWopsTSingle OpHP841new5593
2020-05-20 19:23:04K6RBCWopsTSingle OpHP676new5593
 
2020-05-20 14:05:08W6SXCWopsTSingle OpHP3,306new5592
2020-05-20 13:56:25KU7YCWopsTSingle OpLP121new5592
2020-05-20 13:25:07K6RBCWopsTSingle OpHP441new5592
2020-05-18 05:38:35N6TQArQPSOMixedHP1,035new5565
2020-05-18 05:30:58N6TQHamventionSingle OpHP81new5569
2020-05-17 00:26:40K6KRHamventionSingle OpHP20new5569
2020-05-17 00:05:20W6SXHamventionSingle OpHP305new5569
2020-05-15 04:22:54N6ZFONCCC SprintSingle OpLP1,116new5580
2020-05-15 03:07:06K6MRNCCC SprintSingle OpLP1,428new5580
2020-05-15 03:05:11N3ZZNCCC SprintSingle OpLP1,292new5580
 
2020-05-15 03:04:19K7GKNCCC SprintSingle OpLP1,036new5580
2020-05-15 03:04:08WD6T(@N6RO)NCCC SprintSingle OpLP1,886new5580
2020-05-15 02:17:05K6MRNCCC RY-SprintSingle OpLP555new5579
2020-05-14 04:12:59KI6OYCWopsTSingle OpLP784new5576
2020-05-14 04:09:54K6NV/7(K6NV)CWopsTSingle OpLP900new5576
2020-05-14 04:06:42WU6XCWopsTSingle OpLP441new5576
2020-05-14 04:04:33WD6T(@N6RO)CWopsTSingle OpHP20,234new5576
2020-05-14 04:03:45W6SXCWopsTSingle OpHP13,888new5576
2020-05-14 04:01:23K6RBCWopsTSingle OpHP8,100new5576
2020-05-14 02:49:19W6SXCWopsTSingle OpHP15,876new5575
 
2020-05-13 21:37:34KI6OYCWopsTSingle OpLP441new5575
2020-05-13 20:01:24WD6T(@N6RO)CWopsTSingle OpHP20,449new5575
2020-05-13 19:19:52K6RBCWopsTSingle OpHP289new5575
2020-05-13 14:07:26W6SXCWopsTSingle OpHP6,715new5574
2020-05-13 14:04:48WU6XCWopsTSingle OpLP100new5574
2020-05-13 13:19:19K6RBCWopsTSingle OpHP225new5574
2020-05-12 20:10:04K6MRRYOps WeekSingle OpHP5new5571
2020-05-10 22:23:21W6FACQ-MSOABCWHP1,575new5564
2020-05-10 22:20:23W6FAArQPSOMixedHP560new5565
2020-05-10 22:01:44K6EZ7QPM/SHP13,846new5544
 (KX7M,@K6EZ)
 
2020-05-10 21:42:30KA6BIMArQPSOMixedHP10,441new5565
2020-05-10 21:20:14W6SXCQ-MSOABCWHP5,876new5564
2020-05-10 21:18:07K6UM50SprngSprntSingle OpHP105new5567
2020-05-10 18:56:19KA6BIM50SprngSprntSingle OpLP112new5567
2020-05-10 17:09:53AF6SA50SprngSprntSingle OpHP80new5567
2020-05-10 16:37:44N3RCVolta RTTYSOABLP31,298,685new5563
2020-05-10 16:35:35N6DZCQ-MM/SHP39,150new5564
 (KX7M,W6NV)
2020-05-10 16:07:56WU6WVolta RTTYSOABHP1,383,406new5563
2020-05-10 16:00:24W6SXVolta RTTYSOABHP15,029,280new5563
2020-05-10 15:12:19AJ6T50SprngSprntSingle OpLP242update5567
 
2020-05-10 03:43:34W6OATArQPSOMixedHP606new5565
2020-05-10 02:34:53KE8FTArQPSOSSBHP1,093new5565
2020-05-09 23:56:39KF6NCX7QPSOCWHP4,248new5544
2020-05-08 03:35:18N6ZFONCCC SprintSingle OpLP1,184new5562
2020-05-08 03:18:30KF6NCXNCCC SprintSingle OpHP4new5562
2020-05-08 03:07:50WD6T(@N6RO)NCCC SprintSingle OpLP1,505new5562
2020-05-08 03:04:53N3ZZNCCC SprintSingle OpLP480new5562
2020-05-08 03:04:30K7GKNCCC SprintSingle OpLP713new5562
2020-05-08 02:19:37N0KQNCCC RY-SprintSingle OpLP207new5561
2020-05-08 02:19:36W0YKNCCC RY-SprintSingle OpLP675new5561
 
2020-05-07 18:09:43K6MRRYOps WeekSingle OpHP3new5560
2020-05-07 05:12:59KI6OYCWopsTSingle OpLP1,156new5559
2020-05-07 04:07:33WD6T(@N6RO)CWopsTSingle OpHP27,924new5559
2020-05-07 04:06:58K9JMCWopsTSingle OpQRP900new5559
2020-05-07 04:04:18W6SXCWopsTSingle OpHP15,351new5559
2020-05-07 04:01:52N6XICWopsTSingle OpHP27,889new5559
2020-05-07 03:46:37K6RBCWopsTSingle OpHP4,290new5559
2020-05-07 01:57:20W6OATNewEngQPSingle OpHP3,808new5547
2020-05-07 01:53:15W6OATInQPDistributed M/MHP2,175new5545
2020-05-07 01:41:06W6OATDeQPSingle OpHP240new5546
 
2020-05-06 23:04:19KI6OYCWopsTSingle OpLP225new5558
2020-05-06 21:56:27K6MMM(@KE1B)7QPSO(A)CWHP34,602new5544
2020-05-06 20:49:06W6SXCWopsTSingle OpHP17,956new5558
2020-05-06 20:06:38WD6T(@N6RO)CWopsTSingle OpHP20,164new5558
2020-05-06 20:02:11K9JMCWopsTSingle OpLP6,806new5558
2020-05-06 19:43:09N0KQCWopsTSingle OpHP1,296new5558
2020-05-06 19:38:14K6RBCWopsTSingle OpHP1,600new5558
2020-05-06 14:04:36W6SXCWopsTSingle OpHP1,521new5557
2020-05-06 13:28:52K6RBCWopsTSingle OpHP441new5557
2020-05-06 05:45:56KA6BIM/7(@KA6BIM)ARISO SSBHP1,887new5543
 
2020-05-05 20:14:55W6FAInQPSingle OpHP228new5545
2020-05-05 20:06:10W6FANewEngQPSingle OpHP6,396new5547
2020-05-05 20:03:28W6FADeQPSingle OpHP8new5546
2020-05-05 19:52:44W6FA7QPSOMixedHP9,847new5544
2020-05-05 19:23:32K6LRN7QPSOCWHP6,164new5544
2020-05-05 19:19:11K6LRNInQPSingle OpHP99new5545
2020-05-05 19:16:25K6LRNNewEngQPSingle OpHP2,210new5547
2020-05-05 17:40:46KA6BIM/7(@KA6BIM)NewEngQPSingle OpHP8,568new5547
2020-05-05 17:13:50KA6BIM/7(@KA6BIM)InQPSingle OpHP1,512new5545
2020-05-05 17:05:35KA6BIM/7(@KA6BIM)7QPSO(A)SSBHP148,236new5544
 
2020-05-05 16:58:10KA6BIM/7(@KA6BIM)DeQPSingle OpHP390new5546
2020-05-05 06:18:58W7TR(@KH2TJ)NewEngQPSingle OpQRP420new5547
2020-05-05 06:13:23W7TR(@KH2TJ)InQPSingle OpQRP2new5545
2020-05-05 00:10:02K7Q(@K6XV)7QPCnty Exped SOLP121,394new5544
2020-05-04 21:14:11K6KSNewEngQPSingle OpLP130update5547
2020-05-04 21:13:29K6KS7QPSO(A)SSBLP3,400update5544
2020-05-04 17:17:14N6YEU7QPSOMixedLP13,524new5544
2020-05-04 15:18:59N6XI7QPSOCWHP22,176update5544
2020-05-04 15:05:02K6MRNewEngQPSingle OpHP5,180update5547
2020-05-04 15:02:59K6MRDeQPSingle OpHP240update5546
 
2020-05-04 14:50:34K2RD7QPSOSSBHP116,116update5544
2020-05-04 14:46:22AJ6V7QPSOMixedHP35,264update5544
2020-05-04 06:20:49W6OAT7QPM/MHP372,252new5544
 (@W6OAT)
2020-05-04 04:36:14K9YCNewEngQPSingle OpHP16,591new5547
2020-05-04 04:29:47K9YC7QPSO(A)MixedHP74,630new5544
2020-05-04 03:53:29K6IJ7QPSOCWLP13,462new5544
2020-05-04 03:25:30K6MINewEngQPSingle OpHP3,744new5547
2020-05-04 03:22:07K6MI7QPSO(A)MixedHP2,013new5544
2020-05-04 01:33:47WD6TNewEngQPM/SHP253new5547
 (N6WM,K6AW,@N6RO)
2020-05-04 01:24:58WD6TInQPM/MHP680new5545
 (N6WM,K6AW,@N6RO)
 
2020-05-04 00:47:37N6ZFO7QPSOMixedLP21new5544
2020-05-04 00:47:11W1RH7QPSO(A)CWHP1,248new5544
2020-05-04 00:40:30W1RHNewEngQPSingle OpHP1,958new5547
2020-05-04 00:39:30N6ZFONewEngQPSingle OpLP13,570new5547
2020-05-04 00:19:26WD6T7QPM/MHP492,966new5544
 (K6AW,N6WM,@N6RO)
2020-05-04 00:19:18W6SXInQPSingle OpHP812new5545
2020-05-04 00:18:06W6SXNewEngQPSingle OpHP13,502new5547
2020-05-04 00:17:09W6SXDeQPSingle OpHP960new5546
2020-05-04 00:16:17W6SX7QPSO(A)CWHP26,274new5544
2020-05-04 00:09:58KH6TU(AD6E)NewEngQPSingle OpHP360new5547
 
2020-05-04 00:08:01KE8FTNewEngQPSingle OpHP1,118new5547
2020-05-03 23:43:59K6EUNewEngQPSingle OpLP1,680new5547
2020-05-03 23:42:21K6EU7QPSO(A)CWLP9,102new5544
2020-05-03 23:28:17AJ6VNewEngQPSingle OpHP7,014new5547
2020-05-03 22:59:50K6KR7QPSOCWHP73,528new5544
2020-05-03 21:54:48W7TR(KH2TJ)7QPCnty Exped SOQRP612new5544
2020-05-03 21:25:29N6XINewEngQPSingle OpHP6,364new5547
2020-05-03 20:57:23N6XIInQPSingle OpHP32new5545
2020-05-03 20:55:56N6XIDeQPSingle OpHP180new5546
2020-05-03 19:19:40KE8FTDeQPSingle OpHP8update5546
 
2020-05-03 18:46:02WU6W/7(@WU6W)7QPSOSSBHP1,040new5544
2020-05-03 18:32:27K6KRNewEngQPSingle OpHP2,304new5547
2020-05-03 18:30:47K6KRInQPSingle OpHP32new5545
2020-05-03 18:01:41K6ANP7QPSO(A)MixedHP46,593new5544
2020-05-03 17:46:11K6NVInQPSingle OpHP8new5545
2020-05-03 17:44:49K6NVNewEngQPSingle OpHP504new5547
2020-05-03 17:42:34K6NV7QPSO(A)CWHP15,180new5544
2020-05-03 17:28:58W6EUInQPSingle OpHP252new5545
2020-05-03 17:22:33W6EUNewEngQPSingle OpHP5,016new5547
2020-05-03 17:19:09N3RCNewEngQPSingle OpLP2,362new5547
 
2020-05-03 17:08:23K6GFJ7QPSO(A)MixedHP11,648new5544
2020-05-03 17:07:53W6EU7QPSOCWHP64,800new5544
2020-05-03 16:47:52K7RC(K6DGW,@W7RN)7QPSOCWHP169,092new5544
2020-05-03 16:46:49KE6GLA7QPSOMixedLP20,644new5544
2020-05-03 16:42:13K6MR7QPSO(A)CWHP23,705new5544
2020-05-03 16:37:33K6MRRYOps WkEndSOABHP2,876new5549
2020-05-03 16:00:57K6JSNewEngQPSingle OpLP448new5547
2020-05-03 15:57:06K7GK/6(@K7GK)NewEngQPSingle OpLP560new5547
2020-05-03 15:55:06K6JS7QPSO(A)CWLP10,962new5544
2020-05-03 15:53:36K7GK/6(@K7GK)7QPSO(A)MixedLP73,341new5544
 
2020-05-03 14:37:35K6SRZNewEngQPSingle OpHP1,276new5547
2020-05-03 14:18:15K6SRZ7QPSOCWHP84,480new5544
2020-05-03 14:12:59K6RIM7QPSOMixedHP11,070new5544
2020-05-03 08:10:09W6JTI7QPSOCWQRP63,384new5544
2020-05-03 07:55:43KE8FT7QPSOSSBHP42,456new5544
2020-05-03 07:55:41KH6TU(AD6E)7QPSOMixedHP17,753new5544
2020-05-03 07:29:27KE8FTInQPSingle OpHP49new5545
2020-05-03 07:28:42WB6JJJ/7(WB6JJJ)7QPSOSSBHP40,976new5544
2020-05-03 07:26:37K6GHA7QPSOSSBLP40,003new5544
2020-05-03 07:17:00K7XC7QPSO(A)MixedHP125,048new5544
 
2020-05-03 07:06:56K6ST7QPSOMixedLP1,848new5544
2020-05-03 06:45:59KH6LC7QPSOCWHP19,440new5544
2020-05-03 06:31:27N3RC7QPSO(A)MixedLP52,200new5544
2020-05-03 05:00:10K6CTA7QPSOCWLP3,120new5544
2020-05-03 01:53:47W7RN(K5RC)7QPSOSSBHP20,100new5544
2020-05-01 04:25:43KF6NCXNCCC SprintSingle OpHP9new5540
2020-05-01 03:41:00N6ZFONCCC SprintSingle OpLP1,080new5540
2020-05-01 03:32:09K6MRNCCC SprintSingle OpLP1,786new5540
2020-05-01 03:19:30WD6T(@N6RO)NCCC SprintSingle OpLP1,748new5540
2020-05-01 03:16:15W0YKNCCC RY-SprintSingle OpLP520new5539
 
2020-05-01 03:07:02K7GKNCCC SprintSingle OpLP500new5540
2020-05-01 03:07:01WD6T(@N6RO)CWopsTSingle OpLP1,748new5537
2020-05-01 03:04:50N3ZZNCCC SprintSingle OpLP1,488new5540
2020-05-01 02:24:01NN7SS(K6UFO)NCCC RY-SprintSingle OpQRP180new5539
2020-05-01 02:18:02N0KQNCCC RY-SprintSingle OpLP288new5539
2020-05-01 02:16:35K6MRNCCC RY-SprintSingle OpLP555new5539
2020-04-30 05:40:43KI6OYCWopsTSingle OpLP576new5537
2020-04-30 04:06:10K6NVCWopsTSingle OpHP4,896new5537
2020-04-30 04:02:35K6RBCWopsTSingle OpHP8,160new5537
2020-04-30 03:44:36W6SXCWopsTSingle OpHP2,704new5537
 
2020-04-29 20:54:08KI6OYCWopsTSingle OpLP676new5536
2020-04-29 20:06:39WU6XCWopsTSingle OpLP420new5536
2020-04-29 20:03:45K9JMCWopsTSingle OpHP12,769new5536
2020-04-29 19:46:43N0KQCWopsTSingle OpHP870new5536
2020-04-29 19:30:12K6RBCWopsTSingle OpHP576new5536
2020-04-29 19:10:38W6SXCWopsTSingle OpHP144new5536
2020-04-29 18:25:44KF6NCXFlQPSOABMixedHP1,265new5529
2020-04-29 14:18:42W6SXCWopsTSingle OpHP2,601new5535
2020-04-29 13:40:22K6RBCWopsTSingle OpHP841new5535
2020-04-29 00:06:01W6EUSPDX RTTYSOABHP9,450new5520
 
2020-04-28 19:36:43K6MRRYOps WeekSingle OpHP5new5531
2020-04-27 20:50:17KA6BIMFlQPSOAB(A)MixedHP49,450new5529
2020-04-27 19:12:40W6FAFlQPSOABMixedHP11,554new5529
2020-04-27 14:43:49K6STFlQPSOABCWLP360update5529
2020-04-27 04:15:29K6NVSPDX RTTYSOABHP710new5520
2020-04-27 00:00:53K6MMFlQPSOAB(A)MixedHP16,848new5529
2020-04-26 23:26:25W7RN(K5RC)FlQPSOAB(A)MixedHP10,738new5529
2020-04-26 23:05:39W6SXFlQPSOABCWHP6,160new5529
2020-04-26 23:00:24K6SRZFlQPSOABCWHP15,040new5529
2020-04-26 22:43:14W6OATFlQPSOAB(A)MixedHP22,680new5529
 
2020-04-26 22:30:32KE8FTFlQPSOAB(A)SSBHP2,368new5529
2020-04-26 22:25:28K6LRNFlQPSOABCWLP18,720new5529
2020-04-26 21:29:06W6SXBARTG 75Single OpHP2,193new5522
2020-04-26 21:04:23K6YT(W0YK)BARTG 75SO ExpertLP1,232new5522
2020-04-26 20:53:37KH6LCFlQPSOABCWHP3,538new5529
2020-04-26 16:45:42N6WMSPDX RTTYM/MHP1,111,500new5520
 (K6AW,N6WM,@N6RO)
2020-04-26 03:49:17W6SXSPDX RTTYSOABHP46,620new